This demonstration page uses our WeatherBlox Daily Observations layout. Learn more.

Left ArrowRight Arrow

34.02893, -84.19858

Hourly Observations for May 17, 2022

Temp ( °F °C ) Dew Point ( °F °C ) Humidity (%) Winds ( mph kmh ) Pressure ( in mb ) Visibility ( mi km ) Precip ( " mm )
12:53 am 00:53 Clear 67 19.4 52 11.1 59 59 NNW 8 13 29.91 1013 10 16 0.00 0.00
1:53 am 01:53 Clear 65 18.3 51 10.6 61 61 NNW 7 11 29.92 1013 10 16 0.00 0.00
2:53 am 02:53 Clear 61 16.1 50 10 67 67 N 5 7 29.92 1013 10 16 0.00 0.00
3:53 am 03:53 Clear 59 15 50 10 72 72 N 3 6 29.93 1014 10 16 0.00 0.00
4:53 am 04:53 Clear 56 13.3 50 10 81 81 Calm 29.95 1014 10 16 0.00 0.00
5:53 am 05:53 Clear 53 11.7 51 10.6 93 93 Calm 29.96 1015 10 16 0.00 0.00
6:53 am 06:53 Sunny 52 11.1 50 10 93 93 Calm 29.98 1015 10 16 0.00 0.00
7:53 am 07:53 Sunny 61 16.1 55 12.8 81 81 N 3 6 30.01 1016 10 16 0.00 0.00
8:53 am 08:53 Sunny 68 20 54 12.2 61 61 VRB 3 6 30.02 1017 10 16 0.00 0.00
9:53 am 09:53 Sunny 72 22.2 51 10.6 48 48 VRB 6 9 30.03 1017 10 16 0.00 0.00
10:53 am 10:53 Sunny 74 23.3 51 10.6 45 45 VRB 6 9 30.04 1017 10 16 0.00 0.00
11:53 am 11:53 Sunny 77 25 49 9.4 37 37 SSW 3 6 30.04 1017 10 16 0.00 0.00
12:53 pm 12:53 Sunny 78 25.6 49 9.4 36 36 VRB 5 7 30.02 1017 10 16 0.00 0.00
1:53 pm 13:53 Sunny 81 27.2 48 8.9 32 32 NNW 6 9 30.01 1016 10 16 0.00 0.00
2:53 pm 14:53 Sunny 83 28.3 49 9.4 31 31 N 3 6 30.00 1016 10 16 0.00 0.00
3:53 pm 15:53 Sunny 82 27.8 49 9.4 32 32 VRB 7 11 29.99 1016 10 16 0.00 0.00
4:53 pm 16:53 Sunny 83 28.3 49 9.4 31 31 ENE 3 6 29.96 1015 10 16 0.00 0.00
5:53 pm 17:53 Sunny 83 28.3 49 9.4 31 31 NNE 6 9 29.96 1015 10 16 0.00 0.00
6:53 pm 18:53 Sunny 82 27.8 49 9.4 32 32 NNW 3 6 29.96 1015 10 16 0.00 0.00
7:53 pm 19:53 Sunny 79 26.1 51 10.6 38 38 WNW 6 9 29.98 1015 10 16 0.00 0.00
8:53 pm 20:53 Clear 76 24.4 51 10.6 42 42 NW 5 7 29.99 1016 10 16 0.00 0.00
9:53 pm 21:53 Clear 68 20 52 11.1 57 57 Calm 29.99 1016 10 16 0.00 0.00
10:53 pm 22:53 Clear 65 18.3 53 11.7 66 66 Calm 30.01 1016 10 16 0.00 0.00
11:53 pm 23:53 Clear 61 16.1 54 12.2 78 78 Calm 30.01 1016 10 16 0.00 0.00

Powered by AerisWeather